Photometre #525[NE_1.6] FORTH_RSLab AOT

File : 20220927_525.hum

27/09/2022,04:54:34,TEMP=19.3,BA=5.28,STAT.A=38.5,ExtBa=12.81
27/09/2022,04:57:44,TEMP=19.7,BA=5.28,STAT.A=38.0,ExtBa=12.67
27/09/2022,05:00:21,TEMP=20.0,BA=5.28,STAT.D=38.0,ExtBa=12.69
27/09/2022,05:02:14,TEMP=20.2,BA=5.28,STAT.A=37.5,ExtBa=12.71
27/09/2022,05:05:21,TEMP=20.3,BA=5.28,STAT.D=38.0,ExtBa=12.76
27/09/2022,05:07:16,TEMP=20.5,BA=5.28,STAT.A=37.5,ExtBa=12.73
27/09/2022,05:08:30,TEMP=20.5,BA=5.28,STAT.h
27/09/2022,05:08:42,TEMP=20.5,BA=5.28,STAT.h
27/09/2022,05:10:43,TEMP=20.5,BA=5.28,STAT.h
27/09/2022,05:10:44,TEMP=20.5,BA=5.28,STAT.h
27/09/2022,05:15:20,TEMP=20.5,BA=5.28,STAT.D=38.5,ExtBa=12.83
27/09/2022,05:17:33,TEMP=20.9,BA=5.28,STAT.A=38.0,ExtBa=12.76
27/09/2022,05:20:21,TEMP=21.1,BA=5.28,STAT.D=38.0,ExtBa=12.77
27/09/2022,05:25:21,TEMP=21.3,BA=5.28,STAT.D=38.0,ExtBa=12.81
27/09/2022,05:27:15,TEMP=21.7,BA=5.28,STAT.B=37.5,ExtBa=12.75
27/09/2022,05:36:47,TEMP=22.2,BA=5.20,STAT.A=38.0,ExtBa=12.78
27/09/2022,05:39:22,TEMP=23.1,BA=5.20,STAT.A=36.5,ExtBa=12.77
27/09/2022,05:48:50,TEMP=25.5,BA=5.16,STAT.s
27/09/2022,05:49:13,TEMP=25.5,BA=5.16,STAT.s
27/09/2022,05:50:20,TEMP=24.8,BA=5.28,STAT.D=35.0,ExtBa=12.78
27/09/2022,05:59:38,TEMP=26.6,BA=5.28,STAT.s
27/09/2022,06:00:02,TEMP=26.6,BA=5.28,STAT.s
27/09/2022,06:05:11,TEMP=26.6,BA=5.20,STAT.s
27/09/2022,06:07:01,TEMP=26.6,BA=5.20,STAT.s
27/09/2022,06:10:11,TEMP=26.6,BA=5.32,STAT.s
27/09/2022,06:15:11,TEMP=26.6,BA=5.32,STAT.s
27/09/2022,06:17:39,TEMP=25.7,BA=5.32,STAT.A=38.0,ExtBa=12.83
27/09/2022,06:30:11,TEMP=28.7,BA=5.36,STAT.s
27/09/2022,06:30:27,TEMP=28.7,BA=5.36,STAT.s
27/09/2022,06:35:11,TEMP=28.7,BA=5.36,STAT.s
27/09/2022,06:40:11,TEMP=28.7,BA=5.36,STAT.s
27/09/2022,06:45:11,TEMP=28.7,BA=5.36,STAT.s
27/09/2022,06:46:12,TEMP=28.7,BA=5.36,STAT.s
27/09/2022,06:50:11,TEMP=28.7,BA=5.40,STAT.s
27/09/2022,06:55:11,TEMP=28.7,BA=5.40,STAT.s
27/09/2022,06:55:27,TEMP=28.7,BA=5.40,STAT.s
27/09/2022,07:00:11,TEMP=28.7,BA=5.40,STAT.s
27/09/2022,07:05:11,TEMP=28.7,BA=5.40,STAT.s
27/09/2022,07:10:11,TEMP=28.7,BA=5.44,STAT.s
27/09/2022,07:10:27,TEMP=28.7,BA=5.44,STAT.s
27/09/2022,07:15:11,TEMP=28.7,BA=5.44,STAT.s
27/09/2022,07:20:11,TEMP=28.7,BA=5.48,STAT.s
27/09/2022,07:25:11,TEMP=28.7,BA=5.48,STAT.s
27/09/2022,07:25:27,TEMP=28.7,BA=5.48,STAT.s
27/09/2022,07:30:11,TEMP=28.7,BA=5.52,STAT.s
27/09/2022,07:35:11,TEMP=28.7,BA=5.52,STAT.s
27/09/2022,07:40:11,TEMP=28.7,BA=5.52,STAT.s
27/09/2022,07:40:27,TEMP=28.7,BA=5.52,STAT.s
27/09/2022,07:45:11,TEMP=28.7,BA=5.52,STAT.s
27/09/2022,07:50:11,TEMP=28.7,BA=5.52,STAT.s
27/09/2022,07:55:11,TEMP=28.7,BA=5.52,STAT.s
27/09/2022,07:55:27,TEMP=28.7,BA=5.52,STAT.s
27/09/2022,08:00:11,TEMP=28.7,BA=5.52,STAT.s
27/09/2022,08:05:11,TEMP=28.7,BA=5.52,STAT.s
27/09/2022,08:10:11,TEMP=28.7,BA=5.52,STAT.s
27/09/2022,08:10:27,TEMP=28.7,BA=5.52,STAT.s
27/09/2022,08:15:11,TEMP=28.7,BA=5.52,STAT.s
27/09/2022,08:20:11,TEMP=28.7,BA=5.52,STAT.s
27/09/2022,08:25:11,TEMP=28.7,BA=5.52,STAT.s
27/09/2022,08:25:27,TEMP=28.7,BA=5.52,STAT.s
27/09/2022,08:30:11,TEMP=28.7,BA=5.52,STAT.s
27/09/2022,08:35:11,TEMP=28.7,BA=5.52,STAT.s
27/09/2022,08:40:11,TEMP=28.7,BA=5.52,STAT.s
27/09/2022,08:40:27,TEMP=28.7,BA=5.52,STAT.s
27/09/2022,08:45:11,TEMP=28.7,BA=5.52,STAT.s
27/09/2022,08:50:11,TEMP=28.7,BA=5.52,STAT.s
27/09/2022,08:55:11,TEMP=28.7,BA=5.52,STAT.s
27/09/2022,08:55:27,TEMP=28.7,BA=5.52,STAT.s
27/09/2022,09:00:11,TEMP=28.7,BA=5.52,STAT.s
27/09/2022,09:05:11,TEMP=28.7,BA=5.52,STAT.s
27/09/2022,09:10:11,TEMP=28.7,BA=5.52,STAT.s
27/09/2022,09:10:27,TEMP=28.7,BA=5.52,STAT.s
27/09/2022,09:15:11,TEMP=28.7,BA=5.52,STAT.s
27/09/2022,09:20:11,TEMP=28.7,BA=5.52,STAT.s
27/09/2022,09:25:11,TEMP=28.7,BA=5.52,STAT.s
27/09/2022,09:25:27,TEMP=28.7,BA=5.52,STAT.s
27/09/2022,09:30:11,TEMP=28.7,BA=5.52,STAT.s
27/09/2022,09:35:11,TEMP=28.7,BA=5.52,STAT.s
27/09/2022,09:40:11,TEMP=28.7,BA=5.52,STAT.s
27/09/2022,09:40:27,TEMP=28.7,BA=5.52,STAT.s
27/09/2022,09:45:11,TEMP=28.7,BA=5.52,STAT.s
27/09/2022,09:50:11,TEMP=28.7,BA=5.52,STAT.s
27/09/2022,09:55:11,TEMP=28.7,BA=5.52,STAT.s
27/09/2022,09:55:27,TEMP=28.7,BA=5.52,STAT.s
27/09/2022,10:00:11,TEMP=28.7,BA=5.52,STAT.s
27/09/2022,10:05:11,TEMP=28.7,BA=5.52,STAT.s
27/09/2022,10:10:11,TEMP=28.7,BA=5.48,STAT.s
27/09/2022,10:10:27,TEMP=28.7,BA=5.48,STAT.s
27/09/2022,10:15:11,TEMP=28.7,BA=5.48,STAT.s
27/09/2022,10:20:11,TEMP=28.7,BA=5.48,STAT.s
27/09/2022,10:25:11,TEMP=28.7,BA=5.48,STAT.s
27/09/2022,10:25:27,TEMP=28.7,BA=5.48,STAT.s
27/09/2022,10:30:11,TEMP=28.7,BA=5.48,STAT.s
27/09/2022,10:35:11,TEMP=28.7,BA=5.48,STAT.s
27/09/2022,10:40:11,TEMP=28.7,BA=5.48,STAT.s
27/09/2022,10:40:27,TEMP=28.7,BA=5.48,STAT.s
27/09/2022,10:45:11,TEMP=28.7,BA=5.48,STAT.s
27/09/2022,10:50:11,TEMP=28.7,BA=5.48,STAT.s
27/09/2022,10:55:11,TEMP=28.7,BA=5.48,STAT.s
27/09/2022,10:55:27,TEMP=28.7,BA=5.48,STAT.s
27/09/2022,11:00:11,TEMP=28.7,BA=5.44,STAT.s
27/09/2022,11:05:11,TEMP=28.7,BA=5.44,STAT.s
27/09/2022,11:10:11,TEMP=28.7,BA=5.44,STAT.s
27/09/2022,11:10:27,TEMP=28.7,BA=5.44,STAT.s
27/09/2022,11:15:11,TEMP=28.7,BA=5.44,STAT.s
27/09/2022,11:20:11,TEMP=28.7,BA=5.44,STAT.s
27/09/2022,11:25:11,TEMP=28.7,BA=5.44,STAT.s
27/09/2022,11:25:27,TEMP=28.7,BA=5.44,STAT.s
27/09/2022,11:30:11,TEMP=28.7,BA=5.44,STAT.s
27/09/2022,11:35:11,TEMP=28.7,BA=5.44,STAT.s
27/09/2022,11:40:11,TEMP=28.7,BA=5.44,STAT.s
27/09/2022,11:40:27,TEMP=28.7,BA=5.44,STAT.s
27/09/2022,11:45:11,TEMP=28.7,BA=5.44,STAT.s
27/09/2022,11:50:11,TEMP=28.7,BA=5.44,STAT.s
27/09/2022,11:55:11,TEMP=28.7,BA=5.44,STAT.s
27/09/2022,11:55:27,TEMP=28.7,BA=5.44,STAT.s
27/09/2022,12:00:11,TEMP=28.7,BA=5.40,STAT.s
27/09/2022,12:05:11,TEMP=28.7,BA=5.40,STAT.s
27/09/2022,12:10:11,TEMP=28.7,BA=5.40,STAT.s
27/09/2022,12:10:27,TEMP=28.7,BA=5.40,STAT.s
27/09/2022,12:15:11,TEMP=28.7,BA=5.40,STAT.s
27/09/2022,12:20:11,TEMP=28.7,BA=5.40,STAT.s
27/09/2022,12:25:11,TEMP=28.7,BA=5.40,STAT.s
27/09/2022,12:25:27,TEMP=28.7,BA=5.40,STAT.s
27/09/2022,12:30:11,TEMP=28.7,BA=5.40,STAT.s
27/09/2022,12:35:11,TEMP=28.7,BA=5.40,STAT.s
27/09/2022,12:40:11,TEMP=28.7,BA=5.40,STAT.s
27/09/2022,12:40:27,TEMP=28.7,BA=5.40,STAT.s
27/09/2022,12:45:11,TEMP=28.7,BA=5.40,STAT.s
27/09/2022,12:50:11,TEMP=28.7,BA=5.40,STAT.s
27/09/2022,12:55:11,TEMP=28.7,BA=5.40,STAT.s
27/09/2022,12:55:27,TEMP=28.7,BA=5.40,STAT.s
27/09/2022,13:00:11,TEMP=28.7,BA=5.40,STAT.s
27/09/2022,13:05:11,TEMP=28.7,BA=5.40,STAT.s
27/09/2022,13:10:11,TEMP=28.7,BA=5.40,STAT.s
27/09/2022,13:10:27,TEMP=28.7,BA=5.40,STAT.s
27/09/2022,13:15:11,TEMP=28.7,BA=5.40,STAT.s
27/09/2022,13:20:11,TEMP=28.7,BA=5.40,STAT.s
27/09/2022,13:25:11,TEMP=28.7,BA=5.40,STAT.s
27/09/2022,13:25:27,TEMP=28.7,BA=5.40,STAT.s
27/09/2022,13:30:11,TEMP=28.7,BA=5.40,STAT.s
27/09/2022,13:34:32,TEMP=28.7,BA=5.40,STAT.s
27/09/2022,13:35:11,TEMP=28.7,BA=5.40,STAT.s
27/09/2022,13:40:11,TEMP=28.7,BA=5.36,STAT.s
27/09/2022,13:45:11,TEMP=28.7,BA=5.36,STAT.s
27/09/2022,13:50:11,TEMP=28.7,BA=5.36,STAT.s
27/09/2022,13:50:31,TEMP=28.7,BA=5.36,STAT.s
27/09/2022,13:55:11,TEMP=28.7,BA=5.36,STAT.s
27/09/2022,14:00:11,TEMP=28.7,BA=5.36,STAT.s
27/09/2022,14:03:16,TEMP=28.7,BA=5.36,STAT.s
27/09/2022,14:05:11,TEMP=28.7,BA=5.36,STAT.s
27/09/2022,14:10:11,TEMP=28.7,BA=5.36,STAT.s
27/09/2022,14:13:43,TEMP=28.7,BA=5.36,STAT.s
27/09/2022,14:15:11,TEMP=28.7,BA=5.36,STAT.s
27/09/2022,14:20:11,TEMP=28.7,BA=5.36,STAT.s
27/09/2022,14:22:28,TEMP=28.7,BA=5.36,STAT.s
27/09/2022,14:25:11,TEMP=28.7,BA=5.36,STAT.s
27/09/2022,14:29:55,TEMP=28.7,BA=5.36,STAT.s
27/09/2022,14:35:11,TEMP=28.7,BA=5.32,STAT.s
27/09/2022,14:36:20,TEMP=28.7,BA=5.32,STAT.s
27/09/2022,14:40:11,TEMP=28.7,BA=5.32,STAT.s
27/09/2022,14:41:56,TEMP=28.7,BA=5.32,STAT.s
27/09/2022,14:45:11,TEMP=28.7,BA=5.32,STAT.s
27/09/2022,14:46:52,TEMP=28.7,BA=5.32,STAT.s
27/09/2022,14:50:11,TEMP=28.7,BA=5.36,STAT.s
27/09/2022,14:51:15,TEMP=28.7,BA=5.36,STAT.s
27/09/2022,14:55:10,TEMP=28.7,BA=5.36,STAT.s
27/09/2022,15:00:11,TEMP=28.7,BA=5.36,STAT.s
27/09/2022,15:03:22,TEMP=28.7,BA=5.36,STAT.s
27/09/2022,15:05:11,TEMP=28.7,BA=5.36,STAT.s
27/09/2022,15:09:51,TEMP=28.7,BA=5.36,STAT.s
27/09/2022,15:15:08,TEMP=28.7,BA=5.32,STAT.s
27/09/2022,15:19:30,TEMP=28.7,BA=5.32,STAT.s
27/09/2022,15:20:11,TEMP=28.7,BA=5.32,STAT.s
27/09/2022,15:23:11,TEMP=28.7,BA=5.32,STAT.s
27/09/2022,15:25:11,TEMP=28.7,BA=5.32,STAT.s
27/09/2022,15:26:20,TEMP=28.7,BA=5.32,STAT.s